Change the Weather History Date:

Friday, July 25, 2014

  Actual Average Record
Temperature  
Mean Temperature 81 °F 75 °F  
Max Temperature 93 °F 90 °F 99 °F (1963)
Min Temperature 68 °F 60 °F 51 °F (1973)
Degree Days  
Heating Degree Days 0 0  
Month to date heating degree days 0 1  
Since 1 June heating degree days 30 63  
Since 1 July heating degree days 0 1  
Cooling Degree Days 16 10  
Month to date cooling degree days 267 229  
Year to date cooling degree days 394 384  
Since 1 June cooling degree days 373 362  
Growing Degree Days 32 (Base 50)    
Moisture  
Dew Point 49 °F    
Average Humidity 38    
Maximum Humidity 57    
Minimum Humidity 18    
Precipitation  
Precipitation T in 0.08 in 2.69 in (1998)
Month to date precipitation 0.92 1.69  
Year to date precipitation 9.45 9.20  
Snow  
Snow 0.00 in - - ()
Month to date snowfall 0  
Since 1 June snowfall 0  
Since 1 July snowfall 0  
Snow Depth 0.00 in    
Sea Level Pressure  
Sea Level Pressure 29.83 in    
Wind  
Wind Speed 13 mph (SSW)    
Max Wind Speed 35 mph    
Max Gust Speed 40 mph    
Visibility 10 miles    
Events Thunderstorm    
T = Trace of Precipitation, MM = Missing Value Source: NWS Daily Summary

Daily Weather History Graph

Daily Weather History Graph

Search for Another Location

Airport or City:

Trip Planner

Search our weather history database for the weather conditions in past years. The results will help you decide how hot, cold, wet, or windy it might be!

Date:

Astronomy

Jul. 25, 2014 Rise Set
Actual Time 5:51 AM MDT 8:18 PM MDT
Civil Twilight 5:20 AM MDT 8:49 PM MDT
Nautical Twilight 4:41 AM MDT 9:27 PM MDT
Astronomical Twilight 3:59 AM MDT 10:09 PM MDT
Moon 4:52 AM MDT (7/25) 7:17 PM MDT (7/25)
Length of Visible Light 15h 29m
Length of Day
14h 27m
Waning Crescent, 1% of the Moon is Illuminated
Jul 25
Waning Crescent
Jul 26
New
Aug 3
First Quarter
Aug 10
Full
Aug 17
Last Quarter

Hourly Weather History & Observations

Time (MDT) Temp. Dew Point Humidity Pressure Visibility Wind Dir Wind Speed Gust Speed Precip Events Conditions
12:53 AM 73.9 °F 50.0 °F 43% 29.77 in 10.0 mi SW 15.0 mph - N/A   Mostly Cloudy
1:53 AM 70.0 °F 51.1 °F 51% 29.78 in 10.0 mi SW 10.4 mph - N/A   Scattered Clouds
2:53 AM 72.0 °F 48.9 °F 44% 29.76 in 10.0 mi SW 12.7 mph - N/A   Scattered Clouds
3:53 AM 72.0 °F 48.9 °F 44% 29.76 in 10.0 mi SW 8.1 mph - N/A   Mostly Cloudy
4:53 AM 73.9 °F 48.0 °F 40% 29.77 in 10.0 mi SW 11.5 mph - N/A   Mostly Cloudy
5:53 AM 71.1 °F 48.9 °F 45% 29.80 in 10.0 mi SW 8.1 mph - N/A   Mostly Cloudy
6:53 AM 73.9 °F 48.0 °F 40% 29.81 in 10.0 mi SW 11.5 mph - N/A   Mostly Cloudy
7:53 AM 75.9 °F 48.9 °F 38% 29.82 in 10.0 mi SW 8.1 mph - N/A   Mostly Cloudy
8:53 AM 86.0 °F 46.0 °F 25% 29.83 in 10.0 mi Variable 3.5 mph - N/A   Mostly Cloudy
9:53 AM 87.1 °F 46.0 °F 24% 29.83 in 10.0 mi SE 5.8 mph - N/A   Mostly Cloudy
10:53 AM 91.0 °F 44.1 °F 20% 29.82 in 10.0 mi North - - N/A   Mostly Cloudy
11:53 AM 91.9 °F 44.1 °F 19% 29.81 in 10.0 mi SSE 11.5 mph - N/A   Mostly Cloudy
12:53 PM 91.0 °F 43.0 °F 19% 29.80 in 10.0 mi SE 10.4 mph - N/A   Mostly Cloudy
1:53 PM 91.0 °F 42.1 °F 18% 29.80 in 10.0 mi SSE 10.4 mph - N/A   Mostly Cloudy
2:53 PM 90.0 °F 41.0 °F 18% 29.79 in 10.0 mi WNW 15.0 mph - N/A   Mostly Cloudy
3:01 PM 89.1 °F 41.0 °F 19% 30.07 in 10.0 mi West 9.2 mph - N/A Thunderstorm Thunderstorm
3:26 PM 81.0 °F 48.0 °F 31% 30.09 in 10.0 mi SSW 33.4 mph 40.3 mph N/A Thunderstorm Thunderstorm
3:33 PM 81.0 °F 48.9 °F 33% 30.08 in 10.0 mi South 27.6 mph 39.1 mph N/A   Mostly Cloudy
3:53 PM 81.0 °F 46.9 °F 30% 29.82 in 10.0 mi SSE 21.9 mph 33.4 mph N/A   Mostly Cloudy
4:53 PM 80.1 °F 51.1 °F 36% 29.81 in 10.0 mi South 29.9 mph 38.0 mph N/A   Mostly Cloudy
5:53 PM 78.1 °F 52.0 °F 40% 29.83 in 10.0 mi SSE 23.0 mph - N/A   Mostly Cloudy
6:53 PM 77.0 °F 54.0 °F 45% 29.84 in 10.0 mi South 12.7 mph - N/A   Mostly Cloudy
7:53 PM 77.0 °F 54.0 °F 45% 29.85 in 10.0 mi SW 17.3 mph - 0.00 in   Mostly Cloudy
8:53 PM 73.9 °F 55.0 °F 52% 29.84 in 10.0 mi SW 17.3 mph 26.5 mph N/A   Mostly Cloudy
9:53 PM 72.0 °F 55.0 °F 55% 29.84 in 10.0 mi WSW 10.4 mph - N/A   Scattered Clouds
10:53 PM 71.1 °F 54.0 °F 55% 29.83 in 10.0 mi SW 17.3 mph - N/A   Scattered Clouds
11:53 PM 70.0 °F 54.0 °F 57% 29.81 in 10.0 mi SW 16.1 mph - N/A   Scattered Clouds